sat.trackr.live / text

‹ back to catalog

UNKNOWN

NORAD 85015

UNKNOWN UNKNOWN UNKNOWN

§ Identity

Operator
Country
Launch date
Launch site
Launch vehicle
Mass (kg)
RCS (m²)

External: N2YO · Heavens-Above

§ Orbital elements

Epoch: 2026-09-18T14:55:51.373632Z

Period
98.46 min
Inclination
74.0484°
Eccentricity
0.0014313
Mean motion
14.62571533 rev/d
Perigee alt
674.8 km
Apogee alt
695.0 km
Semi-major
7,063.0 km
B*
7.1412e-5
RAAN
222.4841°
Arg perigee
51.4671°
Mean anomaly
308.7776°
Rev number
68,352

§ Raw data

UNKNOWN1 85015U          26261.62212238  .00000333  00000+0  71412-4 0  99992 85015  74.0484 222.4841 0014313  51.4671 308.7776 14.62571533683526

JSON: /api/v1/satellites/85015 · /tle

For live sub-satellite position, see the globe view (requires WebGL).

§ Visibility from observer

Set your observer location to see the next 7 days of passes ≥ 10°. The values pass through the URL so the page stays shareable.

No JS? Fill the form by hand. The geolocation button needs JavaScript.